Other Public Products
Issued by NWS Grand Forks, ND

Home | Current Version | Previous Version | Graphics & Text | Print | Product List | Glossary On
Versions: 1 2 3 4 5 6 7 8 9 10 11 12 13 14 15 16 17 18 19 20 21 22 23 24 25 26 27 28 29 30 31 32 33 34 35 36 37 38 39 40 41 42 43 44 45 46 47 48 49 50
000
FPUS83 KFGF 220510
OPUFGF
PRAIRIE TO PINES WEATHER ROUNDUP
NATIONAL WEATHER SERVICE EASTERN NORTH DAKOTA/GRAND FORKS ND
1200 AM CDT TUE AUG 22 2017

 **SATELLITE DATA USED TO AUGMENT SKY COVER AT AUTOMATED STATIONS**
 *****  WEATHER ACROSS EASTERN NORTH DAKOTA  *****

CITY           SKY/WX    TMP DP  RH WIND       PRES   REMARKS
GRAND FORKS    FAIR      53  52  96 W7        29.99R
GRAND FORKS AF FAIR      50  49  96 NW5       30.00S
GRAND CITY NWS NOT AVBL
BUXTON         NOT AVBL
DEVILS LAKE    FAIR      54  47  77 NW7       30.06S
FARGO          FAIR      59  53  80 N10       29.99R
WAHPETON ARPT  FAIR      61  52  72 NW10G16   30.00R
$$

 *****  WEATHER ACROSS CENTRAL AND WESTERN NORTH DAKOTA  *****

CITY           SKY/WX    TMP DP  RH WIND       PRES   REMARKS
JAMESTOWN      FAIR      53  47  79 NW8       30.06R
BISMARCK       FAIR      57  46  66 NW5       30.13R
MINOT          FAIR      58  41  53 W9        30.11R
MINOT AFB      FAIR      49  42  76 W9        30.10R
GARRISON         N/A     50  43  77 NW9       30.12S
WILLISTON      FAIR      54  37  52 NE3       30.16S
DICKINSON      FAIR      52  38  58 W7        30.16S
HETTINGER      FAIR      47  40  76 W5        30.19S
$$

 *****  OTHER OBSERVATIONS NORTHEAST NORTH DAKOTA  *****

CITY           SKY/WX    TMP DP  RH WIND       PRES   REMARKS
WALHALLA       FAIR      54  54 100 W7        29.99S
LANGDON        FAIR      46  46 100 W8        30.03S
CAVALIER       FAIR      52  48  87 W8        29.98S
GRAFTON        FAIR      55  52  88 W7        30.00F
CANDO          FAIR      50  50 100 NW9       30.07S
FORT TOTTEN      N/A     61  47  59 NW3       29.95S
ROLLA          FAIR      50  43  76 NW9       30.07S
RUGBY          FAIR      48  45  87 W7        30.07S
 ***** THE ABOVE OBSERVATIONS ARE NON NWS ARE NOT QUALITY
        CONTROLLED AND MAY MIS-REPORT RAIN FOR SNOW...
$$

 *****  OTHER OBSERVATIONS SOUTHEAST NORTH DAKOTA *****

CITY           SKY/WX    TMP DP  RH WIND       PRES   REMARKS
COOPERSTOWN    FAIR      54  50  87 NW7       30.05S
VALLEY CITY      N/A     54  54 100 NW7       30.06R
OAKES          NOT AVBL
GWINNER        CLEAR     59  52  77 NW8       30.04R
SHEYENNE NWR     N/A     59  50  72 NW3       29.95S
BUFFALO        NOT AVBL
WYNDMERE       NOT AVBL
 ***** THE ABOVE OBSERVATIONS ARE NON NWS ARE NOT QUALITY
       CONTROLLED AND MAY MIS-REPORT RAIN FOR SNOW...
$$

  *****  WEATHER ACROSS NORTHERN MINNESOTA  *****

CITY           SKY/WX    TMP DP  RH WIND       PRES   REMARKS
FLAG ISLAND    FAIR      57  54  88 W7        29.91R FOG
WARROAD        FAIR      54  48  82 W5        29.94F
ROSEAU         FAIR      54  48  82 W3        29.95S
HALLOCK        FAIR      50  48  93 W5        29.97S
THF RVR FALLS  FAIR      52  51  97 NW8       29.98S
HALSTAD        NOT AVBL
FOSSTON        FAIR      54  52  94 NW8       29.98R
BAUDETTE       FAIR      56  52  86 NW8       29.91R
WASKISH        FAIR      57  57 100 NW9       29.92R
CROOKSTON      FAIR      54  52  94 N7        29.99S
$$
  *****  WEATHER ACROSS CENTRAL AND WEST MINNESOTA  *****

CITY           SKY/WX    TMP DP  RH WIND       PRES   REMARKS
BEMIDJI        FAIR      55  54  94 NW10      29.93R
PARK RAPIDS    FAIR      57  54  89 NW7       29.94R
WADENA         MOCLDY    61  61 100 NW6       29.94R
DETROIT LAKES  FAIR      57  54  88 NW10      29.99R
MOORHEAD       FAIR      57  54  88 NW7       30.00R
FERGUS FALLS   FAIR      61  54  77 N14       29.98R
ELBOW LAKE     FAIR      62  56  82 W15       29.98R
MORRIS MN      FAIR      63  57  82 NW12      29.97R
STAPLES        FAIR      59  57  94 NW8       29.93R
WHEATON        FAIR      63  52  67 NW14      30.02R
$$
  *****  WEATHER ELSEWHERE ACROSS MINNESOTA  *****

CITY           SKY/WX    TMP DP  RH WIND       PRES   REMARKS
DULUTH         CLOUDY    57  56  96 N3        29.85R
INTRNTL FALLS  MOCLDY    54  52  93 CALM      29.88S
ELY            CLOUDY    55  54  94 NW3       29.86R
CLOQUET        CLOUDY    59  55  88 N8        29.86R
BRAINERD       FAIR      61  60  97 NW6       29.90R
HIBBING        FAIR      54  54 100 NW5       29.87S
ALEXANDRIA     FAIR      62  58  86 NW8       29.96R
SAINT CLOUD    FAIR      65  62  90 NW14      29.87S
MINNEAPOLIS    FAIR      68  63  84 W10       29.87S
$$

  *****  WEATHER ACROSS SOUTH DAKOTA  *****

CITY           SKY/WX    TMP DP  RH WIND       PRES   REMARKS
SIOUX FALLS    FAIR      64  63  96 W6        30.01S
BROOKINGS      FAIR      62  59  90 NW8       30.03R
WATERTOWN      FAIR      61  56  83 NW9       30.03R
HURON          FAIR      56  53  90 NW8       30.06R
SISSETON         N/A     60  55  83 NW10      30.01R
ABERDEEN       FAIR      57  49  74 N10       30.06R
MITCHELL       FAIR      63  57  81 N12       30.06R
PIERRE         FAIR      61  48  62 N9        30.11R
MOBRIDGE       FAIR      53  47  79 N5        30.11R
RAPID CITY     FAIR      54  41  61 NE7       30.21R
$$

  *****  SOME WEATHER IN NEARBY STATES *****

CITY           SKY/WX    TMP DP  RH WIND       PRES   REMARKS
GLASGOW MT     FAIR      58  29  33 E12       30.16R
GREAT FALLS MT FAIR      67  34  29 E10       30.16S
CHEYENNE WY    FAIR      59  43  55 E5        30.33S
SCOTTSBLUFF NE FAIR      62  48  60 S6        30.23R
OMAHA NE       CLOUDY    67  63  87 S9        29.97F
DES MOINES IA  LGT RAIN  66  64  93 S14       29.93F
DAVENPORT IA   FAIR      73  69  87 SW15G21   29.91F
CHICAGO IL     LGT RAIN  74  69  85 S13       29.89F
EAU CLAIRE WI  FAIR      66  63  90 SW8       29.84F
LA CROSSE WI   FAIR      68  65  90 W6        29.90R
$$

  *****  SOME NATIONAL WEATHER *****

CITY           SKY/WX    TMP DP  RH WIND       PRES   REMARKS
LA GUARDIA NY  FAIR      78  72  81 SW10      30.08F
RALEIGH NC     FAIR      78  72  81 CALM      30.18S
ATLANTA GA     FAIR      78  71  79 S6        30.19S
NEW ORLEANS LA MOCLDY    78  77  96 CALM      30.09F
OKLAHOMA CITY  FAIR      76  70  82 S9        30.04S
ALBUQUERQUE NM CLOUDY    73  57  57 E6        30.24R
SALT LAKE CITY FAIR      78  45  30 SE6       30.12S
LOS ANGELES CA FAIR      68  63  84 W12       29.99R
BOISE ID       FAIR      70  41  34 SW3       30.05S
SEATTLE WA     FAIR      72  53  51 N13       30.01S
$$

*** WEATHER ACROSS MANITOBA...SASKATCHEWAN AND ONTARIO ***
                ***ONTARIO***

CITY           SKY/WX    TMP DP  RH WIND       PRES   REMARKS
GERALDTON      LGT RAIN  59  57  94 NW9       29.80F
THUNDER BAY    NOT AVBL
SIOUX LOOKOUT  NOT AVBL
TORONTO        MOCLDY    73  66  78 S3        29.96F
BIG TROUT LK   MOCLDY    54  48  82 N6        29.75S
PICKLE LAKE    NOT AVBL
DRYDEN         PTCLDY    54  52  94 W7        29.86F
KENORA         PTCLDY    52  48  87 NW6       29.90F
$$
                *** MANITOBA***

CITY           SKY/WX    TMP DP  RH WIND       PRES   REMARKS
BRANDON        CLEAR     46  43  87 NW9       30.04R
DAUPHIN        CLEAR     50  45  81 W8        30.01R
ISLAND LAKE    LGT RAIN  57  54  88 W9        29.81F
PILOT MOUND      N/A     46  43  87 W6          N/A
THE PAS        MOCLDY    63  46  55 NW10      29.97R
THOMPSON       LGT RAIN  54  52  94 N7        29.93R
WINNIPEG       CLEAR     52  50  93 W10       29.95S
LYNN LAKE      CLOUDY    55  52  88 MISG      29.97R
CHURCHILL      CLOUDY    48  43  81 NE13      29.99R
GILLAM         LGT RAIN  52  50  93 N17       29.88R
$$
                ***SASKATCHEWAN***

CITY           SKY/WX    TMP DP  RH WIND       PRES   REMARKS
ESTEVAN        CLEAR     46  36  66 NW6       30.14S
KINDERSLEY     MOCLDY    57  39  51 SE8       30.11S
LLOYDMINSTER   MOCLDY    55  48  76 S3        30.08R
PRINCE ALBERT  PTCLDY    50  41  71 W2        30.09R
REGINA         CLEAR     48  34  57 W5        30.14R
YORKTON        CLEAR     52  43  71 W12       30.07S


USA.gov is the U.S. government's official web portal to all federal, state and local government web resources and services.